TimeCDT,TemperatureF,Dew PointF,Humidity,Sea Level PressureIn,VisibilityMPH,Wind Direction,Wind SpeedMPH,Gust SpeedMPH,PrecipitationIn,Events,Conditions,WindDirDegrees,DateUTC
12:15 AM,51.8,44.6,76,30.21,10.0,Calm,Calm,-,N/A,,Mostly Cloudy,0,2012-10-08 05:15:00
12:35 AM,51.8,42.8,71,30.21,10.0,Calm,Calm,-,N/A,,Scattered Clouds,0,2012-10-08 05:35:00
12:56 AM,50.0,42.8,76,30.20,10.0,NW,9.2,-,N/A,,Clear,320,2012-10-08 05:56:00
1:15 AM,50.0,42.8,76,30.21,10.0,Calm,Calm,-,N/A,,Mostly Cloudy,0,2012-10-08 06:15:00
1:35 AM,50.0,42.8,76,30.22,10.0,West,6.9,-,N/A,,Overcast,280,2012-10-08 06:35:00
1:55 AM,50.0,39.2,66,30.24,10.0,West,6.9,-,N/A,,Overcast,280,2012-10-08 06:55:00
2:15 AM,48.2,42.8,82,30.23,10.0,WNW,9.2,-,N/A,,Overcast,290,2012-10-08 07:15:00
2:35 AM,48.2,41.0,76,30.23,10.0,WNW,6.9,-,N/A,,Mostly Cloudy,300,2012-10-08 07:35:00
2:55 AM,48.2,42.8,82,30.24,10.0,West,4.6,-,N/A,,Overcast,280,2012-10-08 07:55:00
3:15 AM,48.2,42.8,82,30.23,10.0,NW,5.8,-,N/A,,Mostly Cloudy,320,2012-10-08 08:15:00
3:55 AM,46.4,42.8,87,30.23,10.0,NW,9.2,-,N/A,,Clear,320,2012-10-08 08:55:00
4:15 AM,46.4,42.8,87,30.23,10.0,NNW,6.9,-,N/A,,Scattered Clouds,330,2012-10-08 09:15:00
4:55 AM,46.4,42.8,87,30.24,10.0,Calm,Calm,-,N/A,,Mostly Cloudy,0,2012-10-08 09:55:00
5:16 AM,46.4,42.8,87,30.24,10.0,Calm,Calm,-,N/A,,Overcast,0,2012-10-08 10:16:00
5:55 AM,46.4,42.8,87,30.23,10.0,Calm,Calm,-,N/A,,Overcast,0,2012-10-08 10:55:00
6:15 AM,46.4,44.6,93,30.23,10.0,Calm,Calm,-,N/A,,Overcast,0,2012-10-08 11:15:00
6:35 AM,46.4,44.6,93,30.24,10.0,Calm,Calm,-,N/A,,Overcast,0,2012-10-08 11:35:00
6:55 AM,46.4,44.6,93,30.24,10.0,Calm,Calm,-,N/A,,Overcast,0,2012-10-08 11:55:00
7:15 AM,46.4,44.6,93,30.24,10.0,NW,3.5,-,N/A,,Mostly Cloudy,310,2012-10-08 12:15:00
7:35 AM,44.6,42.8,93,30.25,10.0,NNW,3.5,-,N/A,,Partly Cloudy,330,2012-10-08 12:35:00
7:55 AM,46.4,44.6,93,30.25,10.0,NW,4.6,-,N/A,,Partly Cloudy,310,2012-10-08 12:55:00
8:15 AM,46.4,44.6,93,30.25,10.0,NNW,3.5,-,N/A,,Clear,340,2012-10-08 13:15:00
8:35 AM,48.2,42.8,82,30.26,10.0,North,4.6,-,N/A,,Clear,350,2012-10-08 13:35:00
8:55 AM,48.2,42.8,82,30.26,10.0,North,3.5,-,N/A,,Clear,350,2012-10-08 13:55:00
9:15 AM,50.0,42.8,76,30.27,10.0,Calm,Calm,-,N/A,,Clear,0,2012-10-08 14:15:00
9:35 AM,51.8,41.0,67,30.28,10.0,Calm,Calm,-,N/A,,Clear,0,2012-10-08 14:35:00
9:55 AM,51.8,39.2,62,30.28,10.0,West,3.5,-,N/A,,Clear,260,2012-10-08 14:55:00
10:15 AM,53.6,41.0,62,30.28,10.0,WNW,3.5,-,N/A,,Clear,290,2012-10-08 15:15:00
10:35 AM,53.6,39.2,58,30.27,10.0,West,5.8,-,N/A,,Clear,270,2012-10-08 15:35:00
10:56 AM,53.6,37.4,54,30.27,10.0,Calm,Calm,-,N/A,,Clear,0,2012-10-08 15:56:00
11:15 AM,55.4,39.2,54,30.25,10.0,WNW,4.6,-,N/A,,Clear,290,2012-10-08 16:15:00
11:35 AM,55.4,35.6,47,30.25,10.0,Calm,Calm,-,N/A,,Clear,0,2012-10-08 16:35:00
11:55 AM,55.4,35.6,47,30.24,10.0,Calm,Calm,-,N/A,,Clear,0,2012-10-08 16:55:00
12:15 PM,55.4,35.6,47,30.23,10.0,Calm,Calm,-,N/A,,Clear,0,2012-10-08 17:15:00
12:35 PM,57.2,37.4,48,30.22,10.0,SSW,3.5,-,N/A,,Clear,200,2012-10-08 17:35:00
12:55 PM,57.2,37.4,48,30.22,10.0,Calm,Calm,-,N/A,,Clear,0,2012-10-08 17:55:00
1:15 PM,59.0,37.4,45,30.21,10.0,South,6.9,-,N/A,,Clear,180,2012-10-08 18:15:00
1:35 PM,57.2,37.4,48,30.20,10.0,WSW,4.6,-,N/A,,Clear,250,2012-10-08 18:35:00
1:55 PM,59.0,37.4,45,30.19,10.0,West,5.8,-,N/A,,Partly Cloudy,260,2012-10-08 18:55:00
2:15 PM,59.0,37.4,45,30.18,10.0,WSW,5.8,-,N/A,,Partly Cloudy,250,2012-10-08 19:15:00
2:35 PM,57.2,37.4,48,30.18,10.0,Calm,Calm,-,N/A,,Scattered Clouds,0,2012-10-08 19:35:00
2:55 PM,60.8,37.4,42,30.18,10.0,SSW,9.2,-,N/A,,Mostly Cloudy,200,2012-10-08 19:55:00
3:16 PM,59.0,37.4,45,30.17,10.0,SSW,4.6,-,N/A,,Scattered Clouds,210,2012-10-08 20:16:00
3:35 PM,60.8,37.4,42,30.17,10.0,SSW,10.4,-,N/A,,Mostly Cloudy,200,2012-10-08 20:35:00
3:55 PM,60.8,37.4,42,30.16,10.0,SW,8.1,-,N/A,,Mostly Cloudy,220,2012-10-08 20:55:00
4:35 PM,59.0,37.4,45,30.15,10.0,SW,5.8,-,N/A,,Clear,230,2012-10-08 21:35:00
4:55 PM,60.8,37.4,42,30.14,10.0,WSW,8.1,-,N/A,,Partly Cloudy,240,2012-10-08 21:55:00
5:15 PM,59.0,39.2,48,30.15,10.0,South,5.8,-,N/A,,Partly Cloudy,190,2012-10-08 22:15:00
5:35 PM,59.0,37.4,45,30.14,10.0,SW,6.9,-,N/A,,Clear,220,2012-10-08 22:35:00
6:15 PM,57.2,39.2,51,30.13,10.0,South,5.8,-,N/A,,Clear,180,2012-10-08 23:15:00
6:35 PM,55.4,42.8,63,30.13,10.0,South,6.9,-,N/A,,Clear,190,2012-10-08 23:35:00
6:55 PM,53.6,42.8,67,30.12,10.0,South,6.9,-,N/A,,Clear,190,2012-10-08 23:55:00
7:36 PM,51.8,42.8,71,30.13,10.0,South,5.8,-,N/A,,Clear,180,2012-10-09 00:36:00
7:55 PM,51.8,42.8,71,30.13,10.0,South,5.8,-,N/A,,Clear,180,2012-10-09 00:55:00
8:35 PM,50.0,42.8,76,30.13,10.0,South,6.9,-,N/A,,Clear,170,2012-10-09 01:35:00
8:55 PM,48.2,42.8,82,30.14,10.0,South,5.8,-,N/A,,Clear,180,2012-10-09 01:55:00
9:15 PM,48.2,42.8,82,30.14,10.0,South,5.8,-,N/A,,Clear,170,2012-10-09 02:15:00
9:55 PM,46.4,42.8,87,30.14,10.0,SSE,6.9,-,N/A,,Clear,160,2012-10-09 02:55:00
10:15 PM,46.4,42.8,87,30.13,10.0,South,6.9,-,N/A,,Clear,170,2012-10-09 03:15:00
10:55 PM,46.4,42.8,87,30.14,10.0,South,6.9,-,N/A,,Clear,180,2012-10-09 03:55:00
11:15 PM,46.4,42.8,87,30.14,10.0,South,5.8,-,N/A,,Clear,180,2012-10-09 04:15:00
11:35 PM,46.4,42.8,87,30.14,10.0,South,4.6,-,N/A,,Clear,180,2012-10-09 04:35:00
11:56 PM,46.4,42.8,87,30.14,10.0,South,3.5,-,N/A,,Clear,190,2012-10-09 04:56:00